[TLELIST] Archives

 

[list_settings.list_name] Current TLEs

November 27th 2009 PST

HST 1 20580U 90037B 09327.91023735 .00000363 00000-0 15029-4 0 4803 2 20580 028.4678 139.8263 0003384 179.5615 180.4987 15.00857635873876 ISS (ZARYA) 1 25544U 98067A 09330.22235191 .00042985 00000-0 27217-3 0 553 2 25544 051.6458 194.2493 0007403 013.9554 086.3071 15.76076365631487 CXO 1 25867U 99040B 09330.41666667 .00000516 00000-0 10000-3 0 3975 2 25867 066.1690 063.0249 7823491 275.2681 354.7319 00.37808764 5625 ____________________________________________________________________ These 2-Line ...Continue Reading

[list_settings.list_name] Current TLEs

November 26th 2009 PST

HST 1 20580U 90037B 09327.91023735 .00000363 00000-0 15029-4 0 4803 2 20580 028.4678 139.8263 0003384 179.5615 180.4987 15.00857635873876 ISS (ZARYA) 1 25544U 98067A 09329.44380787 .00008447 00000-0 57243-4 0 500 2 25544 051.6466 198.2562 0007766 017.0070 343.0171 15.75985592631357 CXO 1 25867U 99040B 09327.79166667 .00000436 00000-0 10000-3 0 3967 2 25867 066.1565 063.1190 7819348 275.2591 357.4350 00.37806060 5619 ____________________________________________________________________ These 2-Line ...Continue Reading

[list_settings.list_name] Current TLEs

November 25th 2009 PST

HST 1 20580U 90037B 09327.91023735 .00000363 00000-0 15029-4 0 4803 2 20580 028.4678 139.8263 0003384 179.5615 180.4987 15.00857635873876 ISS (ZARYA) 1 25544U 98067A 09328.25677245 .00016285 00000-0 10343-3 0 447 2 25544 051.6455 204.3664 0006000 015.4510 084.9836 15.76650637631177 CXO 1 25867U 99040B 09327.79166667 .00000436 00000-0 10000-3 0 3967 2 25867 066.1565 063.1190 7819348 275.2591 357.4350 00.37806060 5619 ____________________________________________________________________ These 2-Line ...Continue Reading

[list_settings.list_name] Current TLEs

November 24th 2009 PST

HST 1 20580U 90037B 09325.91530634 .00000451 00000-0 21742-4 0 4797 2 20580 028.4680 152.8505 0003296 155.8973 204.1737 15.00857461873570 ISS (ZARYA) 1 25544U 98067A 09327.41173611 .00016041 00000-0 10207-3 0 395 2 25544 051.6460 208.7210 0006156 013.4367 327.4219 15.76621302631030 CXO 1 25867U 99040B 09327.79166667 .00000436 00000-0 10000-3 0 3967 2 25867 066.1565 063.1190 7819348 275.2591 357.4350 00.37806060 5619 ____________________________________________________________________ These 2-Line ...Continue Reading

[list_settings.list_name] Current TLEs

November 23rd 2009 PST

HST 1 20580U 90037B 09325.91530634 .00000451 00000-0 21742-4 0 4797 2 20580 028.4680 152.8505 0003296 155.8973 204.1737 15.00857461873570 ISS (ZARYA) 1 25544U 98067A 09326.29206178 .00014844 00000-0 94947-4 0 310 2 25544 051.6460 214.4928 0005985 008.5988 092.9455 15.76579988630861 CXO 1 25867U 99040B 09325.12500000 .00000308 00000-0 10000-3 0 3952 2 25867 066.1462 063.2047 7814958 275.2584 354.4399 00.37806188 5601 ____________________________________________________________________ These 2-Line ...Continue Reading

[list_settings.list_name] Current TLEs

November 22nd 2009 PST

HST 1 20580U 90037B 09324.65185284 .00000425 00000-0 19788-4 0 4781 2 20580 028.4688 161.0968 0003388 147.0440 213.0544 15.00856704873380 ISS (ZARYA) 1 25544U 98067A 09325.27701509 .00014116 00000-0 90634-4 0 259 2 25544 051.6459 219.7255 0005833 003.7012 092.9173 15.76546258630701 CXO 1 25867U 99040B 09325.12500000 .00000308 00000-0 10000-3 0 3952 2 25867 066.1462 063.2047 7814958 275.2584 354.4399 00.37806188 5601 ____________________________________________________________________ These 2-Line ...Continue Reading

[list_settings.list_name] Current TLEs

November 21st 2009 PST

HST 1 20580U 90037B 09321.06096865 .00000344 00000-0 13596-4 0 4779 2 20580 028.4692 184.5336 0003392 108.0013 252.0927 15.00854380872848 ISS (ZARYA) 1 25544U 98067A 09324.43334491 .00017676 00000-0 11248-3 0 176 2 25544 051.6468 224.0710 0005954 358.2302 346.9065 15.76533111630560 CXO 1 25867U 99040B 09325.12500000 .00000308 00000-0 10000-3 0 3952 2 25867 066.1462 063.2047 7814958 275.2584 354.4399 00.37806188 5601 ____________________________________________________________________ These 2-Line ...Continue Reading

[list_settings.list_name] Current TLEs

November 20th 2009 PST

HST 1 20580U 90037B 09321.06096865 .00000344 00000-0 13596-4 0 4779 2 20580 028.4692 184.5336 0003392 108.0013 252.0927 15.00854380872848 ISS (ZARYA) 1 25544U 98067A 09323.31184226 .00015165 00000-0 97272-4 0 118 2 25544 051.6476 229.8533 0006114 351.7713 104.0556 15.76492553630391 CXO 1 25867U 99040B 09322.50000000 .00000206 00000-0 10000-3 0 3931 2 25867 066.1369 063.3028 7810077 275.2515 357.1156 00.37807137 5593 ____________________________________________________________________ These 2-Line ...Continue Reading

[list_settings.list_name] Current TLEs

November 19th 2009 PST

HST 1 20580U 90037B 09321.06096865 .00000344 00000-0 13596-4 0 4779 2 20580 028.4692 184.5336 0003392 108.0013 252.0927 15.00854380872848 ISS (ZARYA) 1 25544U 98067A 09322.36202938 .00021740 00000-0 13772-3 0 65 2 25544 051.6453 234.7452 0006116 346.7770 114.9269 15.76468433630245 CXO 1 25867U 99040B 09322.50000000 .00000206 00000-0 10000-3 0 3931 2 25867 066.1369 063.3028 7810077 275.2515 357.1156 00.37807137 5593 ____________________________________________________________________ These 2-Line ...Continue Reading

[list_settings.list_name] Current TLEs

November 18th 2009 PST

HST 1 20580U 90037B 09321.06096865 .00000344 00000-0 13596-4 0 4779 2 20580 028.4692 184.5336 0003392 108.0013 252.0927 15.00854380872848 ISS (ZARYA) 1 25544U 98067A 09321.34676779 .00020535 00000-0 13062-3 0 07 2 25544 051.6445 239.9771 0006023 342.0529 113.9369 15.76419300630086 CXO 1 25867U 99040B 09319.87500000 .00000243 00000-0 10000-3 0 3922 2 25867 066.1273 063.4010 7802859 275.2543 359.7808 00.37807471 5581 ____________________________________________________________________ These 2-Line ...Continue Reading
  • This mailing list is a public mailing list - anyone may join or leave, at any time.
  • This mailing list is announce-only.

International Space Station (ISS) / Hubble Space Telescope (HST) / Chandra X-Ray Observatory Orbital Data via EMAIL

Privacy Policy:

Private list